Regional Weather Roundup
Issued by NWS Portland, ME

Home | Current Version | Previous Version | Text Only | Print | Product List | Glossary On
Versions: 1 2 3 4 5 6 7 8 9 10 11 12 13 14 15 16 17 18 19 20 21 22 23 24 25 26 27 28 29 30 31 32 33 34 35 36 37 38 39 40 41 42 43 44 45 46 47 48 49 50
000
ASUS41 KGYX 182210
RWRGYX
WEATHER ROUNDUP FOR MAINE AND NEW HAMPSHIRE
NATIONAL WEATHER SERVICE GRAY ME
500 PM EST THU DEC 18 2014

MEZ002-005-006-010-012-015-018-020-021-024-026-027-029-182300-
MAINE

CITY           SKY/WX    TMP DP  RH WIND       PRES   REMARKS
PORTLAND       CLOUDY    40  29  64 NW8       29.75R
SANFORD        MOCLDY    37  25  60 W15G22    29.76R
BAR HARBOR     CLOUDY    30  28  93 NW6       29.65R
WISCASSET      MOCLDY    36  27  69 NW8       29.74R
ROCKLAND       MOCLDY    34  28  80 NW8G17    29.69R
FRYEBURG       CLOUDY    35  25  66 W12       29.75R
LEWISTONAUBURN CLOUDY    36  25  64 NW13      29.73R
AUGUSTA        CLOUDY    34  25  69 NW8       29.71R
WATERVILLE     MOCLDY    34  23  64 NW8       29.69R
BANGOR         CLOUDY    30  26  85 NW13      29.66S WCI  20
GREENVILLE       N/A     26  22  84 NW14G25   29.61R WCI  14
MILLINOCKET    NOT AVBL
HOULTON        LGT SNOW  28  24  85 NW9       29.55R FOG
PRESQUE ISLE   CLOUDY    28  21  74 NW15G23   29.57S WCI  17
FRENCHVILLE    LGT SNOW  24  21  88 N22G31    29.59R FOG     WCI   9
CARIBOU        LGT SNOW  27  23  85 NW17      29.57R FOG     WCI  14
$$

NHZ002-005-008-009-011-012-014-182300-
NEW HAMPSHIRE

CITY           SKY/WX    TMP DP  RH WIND       PRES   REMARKS
PORTSMOUTH     MOCLDY    39  28  65 W10G18    29.77R
ROCHESTER      CLOUDY    38  26  62 W9G22     29.76R
NASHUA         MOCLDY    39  28  65 VRB7      29.82R
MANCHESTER     MOCLDY    39  27  62 W10G20    29.79R
CONCORD        CLOUDY    37  28  70 VRB7      29.80R
LACONIA        CLOUDY    36  25  64 W12G21    29.77R
PLYMOUTH       CLOUDY    34  31  88 NW6G17    29.79R
BERLIN         CLOUDY    29  23  78 VRB7      29.76R
WHITEFIELD     CLOUDY    30  25  81 NW9       29.80R
JAFFREY        CLOUDY    34  26  72 VRB3      29.80R
KEENE          CLOUDY    37  27  65 W5        29.83S
LEBANON        CLOUDY    35  26  69 NW9       29.83R
MT WASHINGTON  BLWGSNOW   9   9 100 NW71G81     N/A  VSB 0   WCI -22
$$

VTZ005-007-008-182300-
VERMONT

CITY           SKY/WX    TMP DP  RH WIND       PRES   REMARKS
ST JOHNSBURY     N/A     32  25  75 MISG      29.81R
MONTPELIER     CLOUDY    28  25  88 NW12      29.86R FOG     WCI  18
BURLINGTON     CLOUDY    33  25  72 NW14      29.90R
$$

MAZ007-012-024-CTZ003-RIZ002-NYZ038-NYZ072-182300-
SOUTHERN NEW ENGLAND AND NY

CITY           SKY/WX    TMP DP  RH WIND       PRES   REMARKS
BOSTON         MOCLDY    41  28  60 W16G22    29.82R
WORCESTER      CLOUDY    34  27  75 NW18G24   29.81R
NANTUCKET      PTCLDY    40  29  64 W13       29.83R
PROVIDENCE     PTCLDY    39  26  59 W8        29.86R
HARTFORD       MOCLDY    38  25  59 NW20      29.89R
ALBANY         CLOUDY    35  26  69 W17G23    29.94R
NEW YORK CITY  MOCLDY    40  26  57 NW22      29.96S
$$

ANZ081-ANZ082-ANZ150-NHZ014-MEZ023>029-182300-
COASTAL MARINE OBSERVATIONS

STATION/POSITION TIME  TEMP    WIND        PRES    WAVE
                       AIR SEA DIR/SP/G            HT/PER
                 (UTC) (F)     (DEG/KT/KT) (MB)    (FT/S)
MOUNT DESERT ROC 2200   36                 1003.2R
MATINICUS ROCK   2200          310/ 23/ 25 1005.0R
PORTLAND WX BUOY 2150   41 44  330/ 12/ 16 1006.8R   2/11
WELLS            2100   40 40  300/ 12/ 21 1006.2R
ISLE OF SHOALS   2200   40     290/ 22/ 26 1007.1R
JEFFREYS LEDGE   2121      49                N/A     6/ 6
CASHES LEDGE BUO 2150   42 49  320/ 25/ 31 1005.3R   7/ 6
$$

.............KEY..............
   WCI - WIND CHILL
   TC  - TEMPERATURE IN CELSIUS
   VSB - VISIBILITY IN MILES
   HX  - HEAT INDEX
   FAIR- INDICATES FEW OR NO CLOUDS BELOW 12,000 FT, WITH NO
         SIGNIFICANT WEATHER AND/OR OBSTRUCTIONS TO VISIBILITY.





USA.gov is the U.S. government's official web portal to all federal, state and local government web resources and services.